Última Atualização: 20:05 - 31/08/2026
| Relatório Meteorológico da Estação Guaratiba | ||||||
|---|---|---|---|---|---|---|
| Dia | Hora | Direção Vento (graus) | Velocidade Vento (Km/h) | Temperatura (celsius) | Pressão (hPa) | Umidade (%) |
| 31/08/2026 | 20:00:00 | 228 | 9,5 | 22,3 | 1007,0 | 100 |
| 31/08/2026 | 19:45:00 | 227 | 14,8 | 22,6 | 1006,5 | 100 |
| 31/08/2026 | 19:30:00 | 221 | 15,9 | 22,7 | 1006,6 | 100 |
| 31/08/2026 | 19:15:00 | 225 | 5,6 | 22,9 | 1006,0 | 100 |
| 31/08/2026 | 19:00:00 | - | 0,0 | 23,3 | 1006,4 | 100 |
| 31/08/2026 | 18:45:00 | 226 | 8,1 | 23,5 | 1005,5 | 100 |
| 31/08/2026 | 18:30:00 | - | 0,0 | 23,9 | 1005,3 | 100 |
| 31/08/2026 | 18:15:00 | - | 0,0 | 24,0 | 1005,2 | 100 |
| 31/08/2026 | 18:00:00 | - | 0,0 | 24,2 | 1004,9 | 100 |
| 31/08/2026 | 17:45:00 | - | 0,0 | 24,2 | 1005,2 | 100 |
| 31/08/2026 | 17:30:00 | - | 0,0 | 24,4 | 1004,8 | 100 |
| 31/08/2026 | 17:15:00 | - | 0,0 | 24,6 | 1004,9 | 100 |
| 31/08/2026 | 17:00:00 | 238 | 4,9 | 24,8 | 1004,9 | 100 |
| 31/08/2026 | 16:45:00 | - | 0,0 | 25,2 | 1005,4 | 100 |
| 31/08/2026 | 16:30:00 | 238 | 7,4 | 24,8 | 1005,4 | 100 |
| 31/08/2026 | 16:15:00 | 236 | 7,4 | 24,7 | 1005,4 | 100 |
| 31/08/2026 | 16:00:00 | 239 | 7,8 | 24,4 | 1005,2 | 100 |
| 31/08/2026 | 15:45:00 | 237 | 9,5 | 24,4 | 1005,6 | 100 |
| 31/08/2026 | 15:30:00 | - | 0,0 | 24,2 | 1005,9 | 100 |
| 31/08/2026 | 15:15:00 | 239 | 6,7 | 23,7 | 1006,4 | 100 |
| 31/08/2026 | 15:00:00 | 240 | 7,1 | 25,1 | 1006,6 | 100 |
| 31/08/2026 | 14:45:00 | 238 | 2,5 | 25,0 | 1006,9 | 100 |
| 31/08/2026 | 14:30:00 | - | 0,0 | 23,8 | 1006,9 | 100 |
| 31/08/2026 | 14:15:00 | 235 | 3,9 | 23,5 | 1007,1 | 100 |
| 31/08/2026 | 14:00:00 | 235 | 6,0 | 23,3 | 1007,5 | 100 |
| 31/08/2026 | 13:45:00 | 238 | 2,1 | 24,3 | 1008,1 | 100 |
| 31/08/2026 | 13:30:00 | 235 | 7,1 | 23,6 | 1008,6 | 100 |
| 31/08/2026 | 13:15:00 | 237 | 6,7 | 23,6 | 1009,3 | 100 |
| 31/08/2026 | 13:00:00 | 237 | 8,1 | 23,3 | 1010,2 | 100 |
| 31/08/2026 | 12:45:00 | 244 | 7,8 | 24,1 | 1010,5 | 100 |
| 31/08/2026 | 12:30:00 | - | 0,0 | 24,7 | 1010,2 | 100 |
| 31/08/2026 | 12:15:00 | - | 0,0 | 24,3 | 1010,0 | 100 |
| 31/08/2026 | 12:00:00 | 231 | 10,6 | 22,7 | 1009,7 | 100 |
| 31/08/2026 | 11:45:00 | 228 | 6,0 | 22,1 | 1009,9 | 100 |
| 31/08/2026 | 11:30:00 | 228 | 5,3 | 22,0 | 1011,0 | 100 |
| 31/08/2026 | 11:15:00 | 228 | 7,1 | 22,1 | 1011,3 | 100 |
| 31/08/2026 | 11:00:00 | 230 | 13,4 | 22,1 | 1011,3 | 100 |
| 31/08/2026 | 10:45:00 | 229 | 11,3 | 22,5 | 1011,7 | 100 |
| 31/08/2026 | 10:30:00 | 233 | 3,2 | 22,6 | 1012,1 | 100 |
| 31/08/2026 | 10:15:00 | 234 | 6,7 | 22,8 | 1012,2 | 100 |
| 31/08/2026 | 10:00:00 | 240 | 4,9 | 23,3 | 1011,7 | 100 |
| 31/08/2026 | 09:45:00 | - | 0,0 | 23,4 | 1011,3 | 100 |
| 31/08/2026 | 09:30:00 | 244 | 13,1 | 24,3 | 1010,8 | 100 |
| 31/08/2026 | 09:15:00 | 240 | 4,6 | 24,1 | 1010,3 | 100 |
| 31/08/2026 | 09:00:00 | - | 0,0 | 23,4 | 1009,8 | 100 |
| 31/08/2026 | 08:45:00 | 231 | 9,5 | 22,8 | 1010,3 | 100 |
| 31/08/2026 | 08:30:00 | - | 0,0 | 22,5 | 1010,9 | 100 |
| 31/08/2026 | 08:15:00 | - | 0,0 | 22,9 | 1010,6 | 100 |
| 31/08/2026 | 08:00:00 | - | 0,0 | 21,9 | 1010,6 | 100 |